Find Local Weather

World > North America > United States > Illinois

Bensenville, Illinois Regional Weather

Lat: 41.96N, Lon: 87.94W
Wx Zone: ILZ013
Warning FLW WEATHER ALERT - (More Info. Click Here) Warning
Feedback
Expires:201810161400;;271832
ASUS43 KLOT 161309
RWRIL 

ILLINOIS REGIONAL WEATHER ROUNDUP
NATIONAL WEATHER SERVICE CHICAGO/ROMEOVILLE IL
800 AM CDT TUE OCT 16 2018

NOTE: "FAIR" INDICATES FEW OR NO CLOUDS BELOW 12,000 FEET WITH NO
SIGNIFICANT WEATHER AND/OR OBSTRUCTIONS TO VISIBILITY.

* THESE STATIONS ARE NOT UNDER NWS QUALITY CONTROL. THEY ALSO MAY NOT
  REPORT WEATHER SUCH AS PRECIPITATION OR FOG.


ILZ005-006-012>014-019>023-161400-
NORTHEAST ILLINOIS
  
CITY           SKY/WX    TMP DP  RH WIND       PRES   REMARKS
CHICAGO-OHARE  FAIR      35  30  82 SW10      30.19F WCI  27          
CHICAGO-MIDWAY FAIR      36  29  75 SW8       30.21F WCI  30          
AURORA         FAIR      33  30  88 S7        30.20F WCI  27          
LANSING*       FAIR      33  30  88 SW8       30.23S WCI  26          
JOLIET*        FAIR      36  33  90 SW6       30.23S WCI  31          
WAUKEGAN       FAIR      36  29  75 SW13      30.14F WCI  27          
DUPAGE AIRPORT FAIR      34  30  85 SW12      30.19F WCI  25          
KANKAKEE*      FAIR      34  30  86 SW8       30.27R WCI  27          
WHEELING       FAIR      37  29  72 SW9       30.19F WCI  30          
MORRIS*        FAIR      33  32  96 SW6       30.23S WCI  27          
ROMEOVILLE*    FAIR      34  32  93 SW8       30.22S WCI  27          
NORTHERLY ISL    N/A     37  30  76 S9          N/A  WCI  30          
$$


SKY/WX - Weather  TMP - Temperature  DP - Dew Point  RH - Relative Humidity
WIND - Wind Direction/Speed PRES - Barometric Pressure